Location: ?
(35.4214°N, 139.3011°E)
Time: 20:59:17
(UTC+00:00)

Cosmos 1680 Rocket - Pass Details

Date: 14 July 2020
Orbit: 760 x 781 km, 74.1° (Epoch: 10 August)

Event Time Altitude Azimuth Distance (km) Brightness Sun altitude
Rises 11:03:48 0° 182° (S) 3,245 6.4 -12.0°
Reaches altitude 10° 11:06:14 10° 177° (S) 2,323 5.6 -12.4°
Maximum altitude 11:11:19 50° 103° (ESE) 986 3.7 -13.2°
Drops below altitude 10° 11:16:27 10° 29° (NNE) 2,339 6.2 -14.0°
Sets 11:18:53 0° 24° (NNE) 3,270 7.0 -14.4°
